Showing default

EXPLORER 20, 870

Orbit data source: Space-Track

EXPLORER 20, 870 is a payload satellite owned by GSFC (US) in LEO that was launched on Tue, 25 Aug 1964 UTC via an SCOUT X-4 launch vehicle from the Air Force Western Test Range (AFWTR). Payload-class satellites include a variety of spacecraft equipped with specific instruments for various scientific and technological missions. These include communications satellites like Starlink; space stations such as the ISS; scientific satellites like the Hubble; Earth observation satellites from companies like Planet Labs, Umbra, and HawkEye 360; GPS; miniature CubeSats for education and research; and military/defense satellites.

Loading next visibility...
Identifier
870, 1964-051A
Orbit
LEO
Country
Flag of USUS
Related business
Manufacturer
Cutler-Hammer/AIL
Mission
Spacecraft
Bus & Motor
S-48, Unknown motor
Mass
44 kg wet, 44 kg dry
Launch date (UTC)
1964-08-25 (62 years ago)
Launch vehicle
SCOUT X-4
Launch site
Air Force Western Test Range (AFWTR)
Object type
Payload
Rocket body
Debris
Shape & HBR
Unknown
Radar Cross Section
Medium (>0.1 m² and <1 m²)

Expand to show TLE details & history
Last TLE update: 12 hours ago

TLE from 12 hours ago
0 EXPLORER 20
1 00870U 64051A   26127.26575885  .00000106  00000-0  74316-4 0  9997
2 00870  79.8972 323.2813 0097289  31.4688 329.2237 13.91783332127745
Epoch: 2026-05-07T06:22Z
TLE epoch observation values (Epoch: 2026-05-07T06:22:41.564Z)
Latitude
-0.00003°
Longitude
2.49374°
Altitude
864.364 km
Speed
7.451 km/s
True Right ascension
21h 33m 07s
True Declination
0° 00' 00"
Sunlit
Object was in daylight at epoch
Visualization orbit readout
Latitude
Unknown
Longitude
Unknown
Altitude
Unknown
Speed
Unknown
Apparent Right ascension
Unknown
Apparent Declination
Unknown
Sunlit
N/A
Visualization observer readout
Local Sidereal Time
02:23:09
Azimuth
Unknown
Elevation
Unknown
Doppler factor
Unknown
Orbital elements
Apogee altitude
990.654 km
Perigee altitude
848.655 km
Semi-major axis
7,297.792 km
Eccentricity
0.00973
Inclination
79.8972°
RAAN
323.2813°
Arg. of periapsis
31.4688°
True anomaly
328.64723°
Mean anomaly
329.2237°
Eccentric anomaly
328.93607°
Mean motion
3.48142 °/min
Orbital period
103.41 mins
BSTAR
0.000074316
Loading maneuver chart data...
Computing Atmospheric mass density...
Loading historical data...
Loading historical data...
Loading historical data...
Loading historical data...
Loading historical data...
Loading historical data...
Loading historical data...

Documentation

Showing up to 5 results
|